Theta_e
325 319 314 310 316 314 311 303 293 292 290 287 284 286 288 294 296 294 294 296 295 296 300 299 299 301 300 298 299 299 298 297 298 293 291 298 304 307 308 312 318 321 325 329 331 332 338 344 344 342 342 341 341 341 341 340 340 340 339 339 339 338 338 338 338 338 337 337 338 338 338 336 336 335 335 335 335 334 334 334 334 334 334 334 334 334 333 333 333 332 333 332 332 328 331 330 331
320 314 310 314 315 311 305 297 289 286 284 283 288 287 290 293 295 293 294 295 295 298 297 300 301 300 299 301 300 299 300 300 303 303 305 307 307 308 311 314 320 324 325 330 333 334 336 338 345 343 342 341 342 341 341 340 340 339 339 339 338 338 338 337 338 338 338 338 337 337 336 336 335 335 335 334 334 334 334 334 334 333 333 333 334 333 333 333 332 332 331 332 331 330 330 330 331
316 310 306 313 311 307 303 299 292 284 284 283 285 290 293 293 293 295 296 298 299 300 300 301 301 301 301 299 298 298 298 301 301 303 303 303 306 305 310 317 323 325 326 329 332 335 337 338 344 344 342 342 341 341 341 340 339 339 339 338 338 339 337 337 337 337 337 337 337 336 336 336 335 334 334 333 334 333 333 333 333 332 332 333 333 333 332 332 332 332 331 331 331 330 330 330 331
309 311 306 307 305 301 295 291 288 285 282 283 285 290 291 291 294 297 298 299 299 299 299 300 300 301 302 298 299 300 297 301 303 303 300 302 306 305 317 322 321 324 326 327 331 334 335 339 344 344 343 342 342 341 341 340 339 339 338 338 338 339 338 337 337 337 337 337 336 335 336 336 335 334 333 334 333 333 332 332 333 333 331 332 332 332 332 333 331 331 330 330 330 329 329 329 330
309 311 311 305 301 298 295 290 289 287 286 285 284 287 291 293 296 296 297 299 299 298 299 299 299 300 302 302 301 298 299 300 303 301 302 302 303 304 320 323 325 325 325 329 330 334 335 339 343 344 343 342 341 341 340 340 339 339 338 338 338 338 337 337 337 337 336 336 336 336 336 335 335 334 333 333 334 333 333 331 332 332 331 332 332 332 331 332 331 331 330 330 329 328 329 330 329
306 307 308 307 302 301 297 289 287 288 291 289 287 289 291 294 295 296 298 300 302 301 302 300 299 301 299 301 301 300 299 303 305 303 302 305 308 314 323 324 325 324 324 328 329 330 330 338 342 344 343 342 342 341 340 340 340 339 338 338 338 338 338 337 336 336 336 336 335 336 336 335 334 334 333 334 333 333 331 332 332 333 332 330 331 332 331 330 331 331 330 330 329 328 330 330 328
306 302 300 304 300 299 290 284 288 290 293 292 292 295 295 295 296 297 299 300 302 301 300 300 299 301 298 301 303 304 307 307 307 310 306 307 310 317 324 323 325 324 325 325 330 331 330 337 341 343 343 342 342 341 341 340 340 339 339 338 338 337 337 337 335 336 337 336 335 336 336 335 335 334 331 334 333 334 333 332 331 332 331 330 331 331 330 329 331 330 330 330 329 328 329 329 328
307 302 298 294 291 292 287 285 289 289 291 296 296 296 298 299 299 297 298 297 297 298 299 298 300 298 299 303 298 305 306 306 310 310 311 308 311 314 322 324 323 324 327 329 329 329 334 337 339 342 344 342 342 342 341 340 339 339 339 338 338 337 337 337 337 335 337 335 336 335 335 335 335 334 334 334 331 334 333 332 332 332 331 331 331 331 330 329 330 329 329 329 329 329 328 328 328
302 301 297 295 290 286 285 288 289 290 294 294 296 297 304 301 300 297 297 298 299 298 299 300 298 295 295 297 298 303 306 307 306 308 310 310 310 313 318 321 322 322 323 328 329 329 328 336 338 340 343 344 343 342 342 341 340 339 338 338 337 337 336 337 337 336 336 336 335 335 335 335 335 334 334 334 333 333 333 332 332 332 332 331 330 330 331 330 330 329 329 329 329 329 328 328 328
299 298 292 290 287 287 283 287 286 290 292 294 295 297 297 297 297 297 297 297 298 298 300 299 298 296 297 296 297 300 304 306 304 306 308 311 312 312 314 317 320 322 324 325 328 330 328 332 336 337 341 342 343 343 343 342 342 339 338 338 337 338 337 337 337 336 336 336 336 335 334 335 335 334 333 333 332 332 333 332 332 332 331 331 331 330 329 329 329 329 329 329 329 329 329 328 328
294 294 294 290 285 283 284 285 286 290 289 291 294 297 297 297 296 296 296 297 298 296 298 296 295 294 295 295 298 302 303 304 306 306 306 308 312 315 314 314 318 323 322 323 325 328 330 329 333 336 337 340 341 341 342 342 342 340 339 338 338 337 337 336 337 336 336 336 336 335 334 335 334 334 333 333 332 332 333 332 332 331 331 331 330 330 329 330 329 329 329 329 329 329 329 328 328
292 291 292 286 283 284 284 283 287 290 292 291 293 296 296 297 296 294 295 294 295 295 294 296 294 297 294 295 295 298 302 304 307 306 306 309 311 314 315 315 315 319 322 323 323 325 327 329 331 333 335 337 338 339 339 340 341 341 340 339 338 337 337 336 336 336 336 336 335 335 335 335 334 334 334 334 332 332 334 333 331 331 331 330 330 330 328 329 329 329 329 329 329 329 328 328 328
292 289 286 284 283 284 284 285 288 289 289 290 292 294 296 295 294 295 295 294 293 291 294 296 297 298 293 295 296 299 302 305 306 306 307 309 312 312 313 314 316 315 317 320 323 325 326 327 329 332 335 335 336 336 336 338 339 340 340 339 339 338 337 337 335 337 336 336 336 336 337 336 334 334 333 334 332 331 332 333 333 331 330 330 330 330 329 329 329 329 329 329 329 329 328 328 328
292 291 290 286 283 283 284 285 284 286 288 290 292 294 295 295 293 294 294 293 294 292 296 299 298 297 296 296 297 297 301 303 303 307 310 313 311 310 312 314 315 315 315 320 322 323 325 327 330 331 332 334 334 335 335 335 337 338 338 338 338 338 337 337 337 336 337 337 336 335 334 335 335 335 335 333 332 331 332 333 333 330 330 330 330 330 330 329 328 328 329 329 329 328 328 328 328
297 291 287 284 282 282 284 285 285 283 288 292 292 293 295 297 296 295 294 294 295 299 298 299 300 297 291 294 293 295 300 302 303 304 309 312 310 310 310 310 313 314 315 316 321 323 326 326 329 331 332 333 333 333 333 334 335 336 336 336 336 336 336 336 336 335 334 335 334 333 332 333 334 334 334 333 332 331 332 332 332 332 330 330 330 330 330 329 328 329 328 328 328 328 328 328 328
295 290 288 286 281 282 286 285 286 285 289 291 292 292 293 295 295 295 295 296 297 297 296 297 299 297 296 296 298 300 302 305 306 308 309 310 309 310 309 309 311 313 315 318 320 323 325 326 327 330 332 333 333 334 333 332 334 334 334 334 334 334 334 334 333 332 331 331 331 330 330 330 332 333 334 332 331 330 331 331 330 331 331 332 330 330 329 329 329 328 328 328 328 328 327 327 327
294 291 287 282 285 282 285 286 284 286 288 288 291 293 292 294 295 295 297 296 295 297 297 298 298 298 299 300 303 303 302 302 308 306 307 307 307 308 308 308 309 311 315 316 320 322 324 326 327 329 330 332 333 333 333 333 333 333 332 332 332 332 332 331 331 330 329 328 328 327 328 329 327 328 331 329 331 327 328 328 330 329 329 330 332 330 330 329 328 328 328 327 327 327 328 328 328
296 291 285 283 285 283 287 288 287 288 289 291 292 293 293 293 297 297 297 296 294 296 295 299 299 299 301 303 303 302 301 299 300 302 303 304 304 305 305 307 307 311 313 314 315 321 323 325 326 327 329 331 332 333 334 334 333 333 332 333 332 331 331 330 329 329 329 330 327 328 327 327 327 326 326 326 326 325 325 326 327 327 328 329 330 330 331 329 328 328 328 327 327 327 329 319 319
293 284 285 287 285 290 290 289 290 290 293 293 293 293 293 294 295 294 294 295 295 295 296 297 297 299 300 300 301 300 300 300 299 300 302 302 303 304 305 307 307 308 310 312 315 319 323 325 324 326 327 329 331 332 333 334 333 332 332 332 332 330 329 329 328 327 328 328 328 328 326 326 326 324 324 324 322 323 323 325 325 326 327 328 328 330 330 329 330 329 328 328 327 329 320 312 310
292 290 286 288 289 289 290 290 293 291 293 293 294 295 293 295 294 296 293 293 294 293 294 296 295 296 298 298 298 298 298 299 299 299 299 300 301 303 304 305 306 307 310 312 313 317 321 324 325 326 327 328 330 331 332 332 332 332 332 332 331 331 329 329 328 327 326 326 327 327 327 326 325 324 325 324 324 324 323 323 324 324 326 326 326 327 328 329 329 327 328 329 330 322 312 309 309
291 290 287 288 290 291 293 293 293 295 294 294 294 294 293 295 294 293 293 291 293 294 296 295 295 297 298 299 298 297 297 297 298 298 299 299 301 303 305 306 307 308 310 312 312 314 320 324 325 326 327 327 328 330 330 331 331 331 331 332 331 330 329 328 328 326 325 324 324 325 325 324 324 321 321 323 322 320 317 316 319 322 322 320 324 320 319 317 319 313 310 312 308 309 308 304 306
290 292 294 293 290 291 295 294 294 293 293 291 291 291 293 294 292 292 291 290 291 295 298 296 296 297 297 298 299 298 296 296 297 297 298 299 300 301 303 304 306 306 307 307 310 311 317 322 325 326 326 327 328 329 330 330 330 330 330 330 330 330 329 328 327 326 325 324 323 323 322 322 322 322 320 321 322 320 318 316 317 319 318 320 320 319 317 315 315 311 311 311 307 305 307 305 307
291 290 291 293 294 293 295 294 293 292 291 292 291 292 292 293 293 295 294 292 295 299 300 300 299 299 299 299 298 298 299 298 298 297 297 297 298 300 301 303 305 305 306 307 309 310 313 318 322 324 325 326 326 328 329 330 330 330 330 330 330 329 329 328 327 326 325 324 323 322 322 321 320 320 319 319 320 320 319 316 316 316 318 318 318 317 315 313 314 312 311 310 306 304 305 306 307
291 290 286 290 290 291 293 293 292 291 289 291 294 293 292 293 291 295 294 297 298 299 300 300 300 300 300 297 298 298 298 299 299 299 299 298 299 300 300 301 303 304 303 305 307 308 310 314 319 323 324 325 325 327 328 329 330 329 329 328 329 329 328 328 328 327 326 324 323 322 322 321 321 319 319 318 319 319 320 318 316 315 316 316 315 316 315 313 312 311 312 307 307 305 305 305 306
289 289 288 289 290 292 294 294 294 294 294 295 294 292 293 294 294 294 294 298 299 300 300 299 299 299 298 297 297 298 298 298 298 299 300 299 299 300 300 301 301 302 302 304 305 306 308 312 315 320 323 324 325 326 327 328 329 329 329 329 329 327 329 329 328 327 326 325 324 323 321 321 320 320 319 319 318 319 320 319 317 316 315 315 314 314 314 313 311 310 311 310 309 308 305 306 304
289 290 290 291 293 294 296 295 296 296 296 296 293 293 295 296 296 293 296 298 300 299 297 298 297 296 296 297 297 297 298 298 298 298 299 300 299 298 299 299 300 300 302 304 304 306 307 310 313 318 322 324 324 325 326 327 327 327 329 329 329 327 328 329 328 327 326 325 324 323 322 322 321 321 320 318 318 318 318 319 318 317 316 315 314 315 314 313 313 310 309 309 309 308 308 308 306
291 292 293 293 294 294 296 294 296 296 295 295 292 292 293 295 292 290 298 298 299 295 294 294 293 294 295 296 297 297 297 297 298 299 299 299 298 297 299 299 299 301 302 302 304 305 307 308 312 316 320 322 323 324 325 326 327 327 327 328 328 328 328 328 328 327 326 325 325 323 322 322 322 321 320 319 318 319 318 317 317 316 316 315 315 315 313 314 313 312 312 311 309 308 308 307 307
294 293 294 294 294 294 295 295 294 294 293 291 291 291 293 292 291 293 297 296 293 293 295 295 294 294 295 296 296 297 297 298 299 298 297 298 299 299 298 299 299 300 301 302 303 304 305 306 309 314 318 321 322 323 324 325 325 326 327 328 328 328 328 328 327 327 326 326 325 323 323 322 321 321 320 319 319 318 318 317 316 315 316 315 315 315 314 313 313 312 311 311 310 309 308 306 305
293 292 291 293 292 291 293 292 292 291 291 291 290 290 289 288 289 295 298 298 296 293 293 293 294 294 295 295 296 297 297 298 298 297 298 299 300 300 299 300 300 300 302 303 303 303 303 304 306 311 316 319 321 322 323 324 325 326 326 326 327 327 327 328 327 327 326 327 325 324 323 323 322 322 321 320 319 319 318 317 316 316 316 316 314 314 314 312 312 311 310 308 308 306 306 305 302
292 291 289 290 289 287 290 289 290 290 290 290 289 284 286 286 293 295 295 293 293 291 291 292 293 295 296 296 296 296 297 296 297 298 299 299 299 300 299 301 300 300 301 302 302 302 304 305 306 309 313 317 320 322 323 323 324 325 325 326 326 326 326 327 327 327 326 326 325 325 324 324 322 322 321 320 320 319 318 318 317 317 316 315 314 314 314 313 313 312 311 309 310 308 307 305 303
288 289 287 285 285 283 286 290 288 289 290 287 290 284 287 289 289 293 294 292 291 290 292 295 296 296 296 296 296 296 297 297 298 298 298 298 299 299 300 300 300 300 301 300 301 302 303 304 306 307 311 314 318 321 321 322 323 324 324 325 325 326 326 326 326 327 326 326 325 325 325 324 323 322 322 321 320 319 318 318 318 318 317 315 315 314 314 313 314 313 312 311 309 308 306 305 303
282 284 281 280 282 283 285 290 290 287 290 287 289 283 286 290 291 290 289 289 289 293 295 295 295 295 295 296 296 296 297 299 298 298 298 298 298 298 299 299 300 299 300 301 301 302 302 303 304 305 308 312 316 319 321 322 322 323 323 323 325 325 325 325 325 326 326 326 325 324 324 324 323 323 322 322 321 320 319 319 319 318 316 315 315 313 314 314 314 314 313 312 309 308 306 305 302
279 284 280 282 280 283 285 288 287 289 288 287 288 285 287 290 291 289 289 293 294 294 294 294 294 295 296 296 297 297 297 298 298 298 298 297 297 297 298 299 299 300 300 300 300 300 301 301 303 304 305 310 313 316 319 321 322 322 322 322 323 324 324 324 325 325 326 325 325 324 324 323 323 322 322 322 321 320 320 319 319 318 316 315 314 314 315 316 314 313 312 310 311 310 306 305 302
280 280 281 280 280 282 282 285 285 285 287 285 287 285 287 290 294 295 296 294 293 292 293 294 295 295 296 296 296 296 296 296 296 298 298 297 297 296 297 299 299 299 299 300 300 301 301 301 301 303 304 308 312 314 317 319 321 321 321 322 321 322 323 324 324 323 324 324 324 323 324 323 322 322 322 322 322 321 320 320 318 317 315 315 314 314 315 315 315 314 312 310 309 309 306 304 304
277 279 280 281 279 282 284 283 283 287 288 287 288 287 288 290 293 294 295 294 293 293 293 294 295 295 296 296 295 295 295 294 296 297 297 297 296 296 296 296 296 297 299 299 299 300 301 301 301 302 303 305 309 312 315 317 319 320 320 320 320 320 322 322 322 321 322 323 323 323 323 323 322 322 322 322 321 321 320 319 318 316 315 314 314 314 314 313 313 313 313 309 307 309 308 305 305
283 280 280 280 281 283 284 286 286 287 287 287 287 286 287 290 291 293 295 295 293 294 295 294 295 295 295 294 294 294 294 294 296 296 296 295 295 295 296 295 295 295 297 298 299 298 299 299 299 300 301 304 307 310 312 313 314 316 317 314 315 317 319 320 321 323 323 322 322 323 322 323 322 322 322 322 321 321 320 319 317 314 314 314 314 313 313 313 312 311 311 309 305 303 302 301 299
284 283 282 282 281 284 287 288 288 287 286 286 287 287 287 289 290 292 294 295 294 294 293 294 294 294 294 293 293 293 293 294 295 294 294 293 294 293 294 294 293 293 294 295 297 297 298 299 299 299 300 301 305 308 310 311 312 311 310 315 317 318 319 320 321 322 323 323 322 323 323 323 323 322 321 321 321 320 320 318 316 313 314 314 314 314 314 313 313 312 311 308 306 303 302 298 298
285 284 283 283 281 283 287 287 289 288 286 281 284 286 287 289 291 293 294 294 293 293 293 293 293 293 293 292 292 293 293 292 291 292 292 291 292 293 293 293 294 293 293 294 295 297 298 298 298 300 299 300 303 307 309 311 312 313 314 315 316 318 318 318 319 320 322 323 323 323 323 322 322 321 320 321 321 320 319 319 317 315 314 314 314 313 311 311 310 310 308 306 304 305 304 300 300
286 284 283 282 283 285 288 288 284 285 285 284 284 285 287 289 291 293 293 292 293 294 293 293 293 292 293 292 292 292 290 291 290 291 291 291 292 292 292 293 293 292 292 292 292 293 295 296 298 299 299 299 301 305 307 309 311 312 313 313 316 316 318 320 321 321 321 322 322 322 322 322 322 321 320 320 321 320 320 319 317 316 314 314 313 311 311 310 310 309 308 309 303 300 302 299 301
284 282 281 281 284 282 280 282 283 284 284 285 287 284 286 289 291 292 291 289 290 290 290 291 292 292 292 293 291 290 289 289 290 290 290 291 291 291 292 293 294 293 293 293 294 292 293 296 296 298 299 299 300 302 306 308 310 312 313 311 312 314 312 314 312 313 313 314 317 319 321 321 321 321 321 320 321 320 320 319 318 316 314 314 314 313 311 311 309 308 308 308 307 302 300 300 301
283 283 282 283 283 284 283 283 284 287 287 283 284 285 285 285 285 285 287 286 287 290 289 289 289 289 289 289 287 288 288 289 289 289 290 290 291 291 291 293 293 293 294 294 294 294 295 294 294 297 298 299 300 302 304 306 307 305 306 304 304 306 306 308 309 309 313 315 317 316 319 321 321 321 321 321 320 320 320 319 317 316 315 314 314 314 312 312 310 309 309 308 307 308 302 299 299
281 283 285 285 285 283 283 284 283 281 281 282 284 280 277 279 281 284 288 291 292 293 291 290 290 288 285 285 287 287 288 288 288 289 289 289 289 290 291 292 292 293 295 296 294 295 294 296 294 293 295 297 299 300 303 305 306 308 307 307 305 304 308 305 309 311 312 313 315 318 318 319 319 319 320 320 320 319 319 319 318 316 315 314 314 315 314 312 310 309 308 308 307 308 307 300 299
280 282 286 287 286 284 283 283 282 277 276 281 284 276 277 281 286 288 289 289 289 291 289 289 289 289 285 285 286 286 287 288 287 287 287 288 290 289 291 291 292 293 295 295 294 293 293 294 295 294 294 296 298 299 301 304 304 306 308 309 309 308 309 309 311 312 313 315 316 316 317 317 319 319 319 320 319 319 319 319 318 317 316 315 314 314 313 312 312 310 309 308 308 307 305 303 302
281 282 284 285 284 283 283 282 281 280 280 282 283 281 278 280 282 288 288 285 286 287 289 290 290 286 285 285 285 285 286 286 287 287 288 288 288 288 290 292 291 293 294 294 294 293 293 294 293 293 293 295 296 297 299 303 303 305 306 307 308 308 308 309 310 311 313 313 313 313 313 314 316 318 319 319 319 319 318 319 319 318 317 316 314 314 314 314 312 310 308 308 308 307 307 307 304
281 283 283 282 284 283 282 281 280 279 279 278 279 279 276 277 280 283 284 284 285 286 287 287 288 287 285 285 286 286 286 286 286 287 289 289 289 290 289 290 291 291 292 293 294 294 294 292 291 291 292 292 294 296 299 300 303 304 306 306 306 308 308 309 308 306 306 306 308 309 311 312 313 315 318 318 319 319 317 318 318 318 317 316 314 314 314 313 312 310 307 306 307 306 306 307 305
284 282 282 281 280 280 282 279 280 280 278 277 278 280 273 279 280 282 280 282 284 284 286 286 286 285 283 285 285 286 286 286 285 286 287 288 288 288 289 289 289 290 291 290 292 291 291 291 292 292 292 291 292 293 298 299 301 302 303 304 305 306 305 305 303 303 305 304 307 307 309 310 312 313 314 316 317 318 318 318 318 318 318 317 314 315 314 313 312 311 309 307 307 306 306 306 306
284 284 285 280 279 278 277 279 281 281 274 279 281 281 280 275 280 280 282 283 283 283 283 283 283 283 284 284 284 285 286 286 286 286 287 288 288 288 287 288 289 290 289 289 290 290 291 290 291 292 291 289 292 294 295 298 300 301 302 303 304 304 304 304 302 302 301 301 307 307 308 310 311 312 312 313 315 317 318 317 318 318 318 317 315 314 314 313 312 311 310 308 307 307 305 305 304
286 281 279 280 282 276 274 272 278 277 275 279 278 280 281 274 277 279 282 283 283 285 285 284 284 284 284 284 285 285 284 285 285 286 288 287 289 289 288 289 289 289 290 291 289 291 291 292 290 293 292 290 290 293 295 296 297 299 300 301 302 303 303 303 303 304 303 304 306 307 307 307 308 309 310 312 312 314 315 316 316 316 316 317 315 315 315 314 313 311 310 308 307 306 306 304 304
285 283 282 276 271 269 265 269 273 274 274 277 276 280 276 279 283 285 288 289 289 286 286 287 286 285 284 285 285 285 284 284 286 287 286 287 287 288 289 289 288 289 290 290 290 289 289 290 289 293 295 290 290 291 294 294 296 297 300 300 301 302 302 302 303 304 303 304 304 305 304 306 307 307 308 310 311 312 314 314 315 316 316 316 316 315 315 314 313 311 309 307 307 305 306 305 304
283 282 281 276 271 268 266 267 266 268 274 277 277 278 276 280 283 289 289 291 292 292 291 289 288 288 286 286 286 285 285 285 286 286 286 286 286 287 287 287 287 288 288 289 289 289 289 290 290 293 295 290 289 292 292 293 294 296 296 299 300 300 301 301 302 303 303 303 304 304 305 306 307 308 309 310 312 312 312 314 314 315 316 316 315 315 314 313 312 310 309 307 306 306 305 304 304
284 283 284 280 276 271 267 268 268 271 269 274 275 273 273 276 282 285 286 289 289 288 288 287 287 287 286 284 283 284 285 286 285 285 287 287 288 286 287 287 287 287 288 289 288 288 288 291 291 292 293 293 290 291 291 292 292 292 293 295 297 297 300 300 301 302 301 301 302 303 304 305 306 307 308 310 309 310 311 312 313 314 315 315 315 314 313 312 311 310 309 308 307 306 305 304 304
283 282 282 276 278 279 274 273 268 267 268 268 271 275 276 281 283 287 289 289 288 289 287 286 287 287 286 285 286 287 288 288 287 285 287 286 286 286 286 286 287 287 287 287 288 288 289 290 289 291 291 292 291 292 292 291 291 291 291 292 294 295 297 297 298 298 300 300 301 302 303 303 305 305 304 304 306 309 310 311 311 312 313 313 313 314 313 312 311 310 309 307 306 306 304 303 304
281 283 281 283 282 283 275 272 270 269 268 273 270 276 280 283 287 289 287 286 288 287 287 285 286 287 285 287 288 287 288 287 287 287 286 287 286 286 286 286 286 287 287 288 288 288 288 289 290 291 291 290 290 290 291 290 290 291 292 291 292 293 294 296 299 298 299 299 301 302 303 303 303 302 304 304 306 307 308 309 310 310 311 312 312 312 312 312 310 310 309 307 306 304 304 303 303
283 278 282 283 283 280 277 270 268 265 267 271 271 273 278 278 278 281 281 283 286 284 285 286 285 284 285 288 287 287 288 288 287 286 285 286 285 286 286 286 285 286 286 287 287 287 287 288 288 290 291 292 292 290 291 290 291 291 290 290 290 292 295 295 296 296 297 297 297 298 298 299 302 303 305 304 305 306 307 306 308 308 309 309 310 311 312 312 310 310 309 308 308 305 304 304 303
284 282 281 284 275 275 274 269 269 267 266 269 272 273 275 278 282 284 285 286 288 290 286 283 284 283 285 287 287 287 287 287 287 288 287 286 285 286 286 286 286 286 286 286 286 287 287 287 288 287 289 290 290 290 290 291 290 291 292 291 291 291 291 292 294 294 294 296 297 298 299 301 300 300 302 303 304 304 305 306 307 307 307 308 309 310 311 311 311 310 309 309 308 306 305 305 304
282 285 283 279 278 271 271 276 269 272 267 268 271 274 278 282 281 280 283 284 286 288 284 284 284 286 287 288 289 289 288 288 288 287 287 286 285 285 285 285 286 286 286 286 286 286 287 287 287 287 287 287 288 289 289 290 290 289 290 290 290 291 291 292 293 293 294 296 297 297 298 296 300 300 301 303 304 304 304 305 305 306 306 307 308 309 310 310 310 311 310 309 309 307 306 306 305
281 281 278 280 278 279 277 273 274 274 265 268 271 274 279 285 282 283 285 285 286 286 286 286 286 286 286 287 289 289 289 288 288 287 286 285 285 285 285 284 284 284 284 284 285 285 285 286 286 286 287 287 287 288 288 290 289 289 289 290 291 290 291 290 291 291 293 294 295 295 297 299 296 298 299 300 301 303 303 304 304 304 305 305 306 307 308 309 309 309 310 309 308 307 307 307 306
285 284 282 284 280 275 273 274 276 271 275 269 269 274 281 287 284 287 285 284 284 284 285 287 286 286 286 287 287 287 288 287 286 285 284 284 284 284 284 284 283 284 285 285 285 285 285 285 286 286 286 286 286 287 288 290 290 288 288 289 289 288 288 289 290 290 292 293 293 294 296 294 296 298 298 300 301 301 301 302 303 303 304 304 304 306 306 308 308 308 308 308 308 307 307 307 306
Wind_Speed
6 5 3 2 1 2 2 5 1 2 2 5 3 1 5 1 2 4 6 1 1 2 2 3 2 3 1 4 5 5 4 4 5 4 7 6 2 7 5 6 4 1 6 7 6 5 6 11 14 18 19 18 18 18 18 17 16 16 17 16 17 17 17 16 16 16 16 16 16 15 14 14 14 14 14 14 14 13 12 12 13 12 12 11 10 9 8 8 7 7 8 7 6 6 6 4 5
4 4 2 1 0 1 0 2 4 3 3 4 7 3 5 1 1 6 7 6 4 1 1 2 5 4 7 11 7 3 9 10 11 8 5 8 9 8 2 4 3 5 5 6 8 6 4 6 13 15 18 19 19 19 18 17 17 17 17 17 17 17 17 17 16 16 16 16 16 15 15 14 13 13 13 14 13 13 12 12 12 11 11 10 9 9 9 8 7 5 5 7 6 5 5 3 4
3 5 2 3 3 4 2 3 2 1 0 5 6 7 1 0 6 7 9 9 7 4 6 7 4 5 3 1 3 4 9 3 5 7 5 4 6 4 4 1 2 1 3 4 7 7 4 6 13 14 17 18 19 19 17 17 17 17 17 18 17 17 17 17 17 17 17 16 16 15 15 14 14 13 13 13 13 13 12 12 12 11 11 10 9 8 8 9 8 6 6 7 5 3 5 2 3
1 2 1 2 0 4 2 3 4 6 2 6 7 5 4 4 8 10 7 7 5 3 2 3 3 2 3 8 6 0 4 5 4 3 2 3 7 3 1 3 3 2 0 1 3 4 5 7 11 11 15 17 18 19 18 18 18 17 17 17 17 17 17 17 17 17 16 16 16 15 15 15 14 13 13 13 13 13 12 12 12 12 11 11 9 8 8 8 8 7 6 5 5 5 5 4 3
1 2 1 3 4 1 1 1 3 3 6 5 5 2 4 5 8 5 5 5 6 4 2 2 1 3 5 6 2 1 5 6 7 3 3 5 2 3 2 4 4 4 2 0 0 0 1 8 8 10 14 17 18 19 19 19 19 18 18 17 17 17 17 16 17 16 16 16 16 15 16 15 14 14 14 13 13 13 12 12 11 11 10 10 10 9 8 8 8 6 6 6 5 5 5 4 3
2 2 3 1 0 2 4 0 2 7 8 3 2 5 4 5 4 4 8 8 8 5 8 3 3 4 3 2 4 2 2 4 1 3 2 3 9 6 1 4 6 4 2 1 1 0 1 3 7 9 13 16 17 19 20 20 19 19 18 18 17 17 17 17 16 17 16 16 15 15 15 15 15 14 14 14 13 13 13 12 11 11 11 10 10 10 10 8 8 8 8 6 6 5 5 5 4
1 4 5 3 2 3 3 3 7 7 9 5 5 7 5 4 5 3 7 9 4 3 2 3 0 3 4 1 3 4 7 3 2 2 1 7 5 4 4 1 4 6 5 3 1 2 2 2 3 7 11 15 15 16 17 18 20 20 20 17 17 17 17 16 17 17 16 16 15 15 15 14 14 14 14 14 13 13 13 12 12 11 11 10 10 10 9 9 9 7 7 7 7 5 5 4 3
2 1 2 1 1 2 1 2 8 4 7 8 3 4 6 5 3 2 8 1 7 5 1 3 0 2 11 5 5 4 4 2 6 9 7 3 3 4 4 5 1 4 7 6 4 1 2 5 6 7 8 12 14 15 16 17 18 18 19 19 18 18 17 17 17 17 16 16 15 15 15 15 13 15 14 14 13 13 12 12 12 11 11 10 10 10 8 8 8 8 7 8 7 6 5 5 4
4 5 0 3 1 2 1 6 7 3 7 3 8 5 9 8 5 4 6 4 6 4 7 5 1 1 3 3 3 6 8 2 6 5 4 5 5 1 2 3 5 3 1 3 4 4 2 4 4 6 8 9 13 14 15 14 15 17 18 18 19 18 18 17 17 17 17 16 16 15 15 15 14 13 13 13 13 13 13 12 12 12 11 11 11 10 9 9 8 8 7 7 6 6 5 5 5
2 2 1 1 2 4 2 7 1 6 5 2 4 7 5 4 5 4 8 9 10 6 10 4 2 5 4 7 5 5 4 5 5 3 4 4 2 2 1 0 0 1 0 1 3 5 4 4 5 3 7 8 9 11 11 12 12 15 17 18 17 18 18 18 17 17 17 17 16 16 15 14 14 14 14 12 13 13 12 12 12 11 11 11 11 10 9 8 8 8 8 8 7 6 6 5 5
0 5 2 1 0 3 6 7 5 7 4 2 7 10 10 6 5 5 4 6 7 5 8 4 4 5 1 4 6 3 2 3 5 4 3 3 2 3 1 1 1 4 2 2 1 1 5 4 6 8 6 9 8 9 9 10 11 14 16 16 17 17 18 18 18 16 16 16 15 15 15 15 14 13 12 11 10 11 12 12 13 11 11 11 10 9 9 9 8 8 8 8 7 6 6 5 5
1 0 1 2 4 5 5 4 6 9 10 4 6 5 3 4 1 1 6 5 3 5 6 2 2 1 5 4 4 3 5 10 5 4 4 2 1 0 2 1 1 1 3 6 4 2 1 3 5 7 9 9 8 8 9 10 11 12 13 14 16 15 16 17 17 16 17 16 15 15 14 15 14 13 11 10 7 9 10 10 11 12 11 11 10 10 10 9 9 8 8 9 8 7 6 6 6
2 1 4 2 4 2 2 4 8 4 7 5 5 2 1 3 3 6 7 5 4 4 9 8 4 0 5 4 3 5 8 13 7 5 5 3 2 0 1 2 1 2 2 3 4 5 4 3 3 5 6 7 8 9 9 9 11 12 12 13 13 13 14 15 17 16 15 16 14 13 12 13 13 13 13 10 8 9 8 7 9 11 11 11 10 9 9 9 9 9 9 9 9 7 7 7 6
3 5 5 3 1 1 2 5 4 5 8 4 3 2 1 1 4 4 1 6 8 5 6 5 1 1 11 4 8 6 8 7 4 4 4 6 3 2 1 0 1 0 3 4 6 5 4 7 7 6 6 5 6 8 9 10 9 12 12 12 12 12 12 13 14 14 14 13 12 11 10 9 10 11 11 10 8 9 7 5 8 11 11 10 10 10 9 10 9 9 9 8 8 8 7 7 7
1 1 2 0 2 1 4 3 4 3 10 0 3 1 1 4 2 1 2 8 13 8 5 1 4 1 5 4 6 5 5 4 5 3 3 5 3 2 3 3 2 2 2 4 5 6 7 5 5 6 6 6 7 7 6 7 10 10 12 11 11 12 12 13 12 12 11 12 12 10 11 9 9 9 9 10 11 9 8 9 8 9 11 11 11 10 9 10 9 9 8 8 8 8 8 8 8
3 4 2 1 3 2 6 3 1 2 10 1 3 2 1 5 3 2 5 5 7 1 1 7 1 6 4 5 8 8 9 9 10 1 2 4 5 5 2 3 3 4 4 6 5 6 7 5 4 5 6 8 9 9 9 8 9 12 11 12 11 12 11 10 11 11 11 9 10 10 11 7 8 8 10 8 11 11 10 7 12 7 8 7 11 10 10 10 10 10 9 8 8 8 8 8 8
2 4 0 1 7 3 5 4 2 5 5 3 5 2 2 7 2 4 2 1 8 13 7 8 10 2 12 12 13 11 9 5 4 5 5 8 5 6 6 6 5 5 3 5 5 5 5 7 6 6 7 9 11 11 9 9 9 12 11 13 13 13 13 10 9 10 11 9 8 8 9 7 4 4 6 6 9 8 10 10 11 8 7 5 5 10 11 10 10 9 8 9 9 8 7 7 7
2 2 2 5 5 3 6 7 8 2 2 4 2 0 4 14 10 6 4 6 7 11 11 13 8 10 13 15 10 8 7 5 5 5 8 7 5 5 6 6 4 7 6 4 3 4 4 5 7 6 5 9 10 9 8 8 7 10 9 8 9 9 11 11 8 6 7 6 9 7 5 6 5 5 4 5 5 6 9 11 11 9 7 8 5 3 4 9 11 10 9 9 9 9 6 2 1
3 1 2 9 5 7 6 4 6 2 9 6 5 4 4 12 6 3 9 16 13 15 17 9 13 14 13 14 14 10 10 9 7 6 8 8 8 9 8 7 7 6 7 7 5 6 7 6 4 7 9 8 9 9 8 8 9 8 8 9 8 10 8 9 7 6 5 6 6 6 5 5 5 5 4 5 4 7 7 11 11 11 10 9 8 7 4 2 4 8 10 10 8 8 3 2 1
4 5 7 9 5 4 5 3 6 5 7 13 13 9 4 10 4 1 7 14 13 18 16 18 12 13 12 8 6 8 6 9 8 8 9 10 10 10 8 8 8 7 8 7 8 4 5 6 7 7 8 7 7 7 7 7 8 8 8 8 8 8 8 7 7 6 6 6 6 6 5 5 5 5 4 7 6 5 6 9 11 12 11 11 11 8 7 6 5 2 4 4 6 1 2 2 1
2 2 5 5 3 4 5 7 10 10 6 10 9 9 11 8 6 1 6 11 15 18 17 14 18 18 16 13 6 4 7 8 8 8 9 10 11 9 9 10 10 10 9 9 6 4 6 8 7 8 8 7 7 7 7 7 8 8 8 8 8 7 7 7 7 7 7 7 7 6 5 5 6 5 5 4 5 4 4 4 5 5 6 6 9 6 6 5 3 0 1 2 1 2 2 1 2
2 9 6 5 4 7 11 6 7 6 5 6 6 10 16 4 2 5 5 10 15 15 18 5 10 12 12 15 16 7 7 8 10 9 11 12 13 12 9 8 8 6 5 5 8 7 7 9 10 9 8 8 9 8 8 8 6 7 8 8 7 7 8 8 7 7 7 7 6 6 5 5 6 6 5 5 5 5 4 5 5 5 4 5 4 6 6 6 5 3 3 1 0 1 2 2 1
7 4 6 6 8 11 5 4 3 1 5 9 10 6 8 12 12 10 11 19 21 23 19 19 14 12 14 12 12 14 16 14 12 12 12 11 12 12 11 10 10 10 8 9 8 7 7 7 8 8 9 9 11 10 8 7 7 8 7 6 7 7 7 8 8 8 7 7 7 7 7 6 6 6 6 6 6 5 5 5 5 4 5 5 4 5 5 4 5 5 4 3 2 2 1 2 2
4 8 1 8 5 11 11 12 8 8 8 15 8 5 10 17 20 3 11 22 20 21 19 13 14 15 13 11 14 15 16 16 17 13 13 14 14 15 14 13 11 9 6 10 9 8 7 10 10 9 10 9 10 10 9 8 8 8 7 6 7 7 7 8 8 8 8 8 8 7 7 7 7 6 6 6 6 6 6 5 5 5 5 5 4 5 5 4 5 5 4 4 3 3 3 2 1
5 8 3 5 3 7 9 10 10 10 13 14 10 11 19 13 15 7 24 27 22 18 11 13 14 12 12 11 15 15 14 14 15 17 12 9 11 13 10 8 10 9 10 11 10 10 9 10 9 11 10 11 9 9 9 9 8 7 7 7 8 8 8 8 8 6 7 7 8 9 8 7 6 7 7 6 5 6 5 5 5 5 5 5 5 5 5 5 5 5 5 5 4 4 3 3 3
3 5 3 5 7 10 12 17 17 14 10 7 9 16 16 15 10 16 29 29 24 8 7 11 10 9 11 13 14 12 13 14 14 14 15 12 7 9 12 11 11 10 13 13 11 10 9 8 9 11 12 11 10 9 9 8 8 9 9 9 9 8 8 8 7 7 7 7 7 9 9 9 8 8 7 6 7 6 6 6 6 6 6 5 5 6 5 5 6 5 5 5 5 5 5 5 3
1 6 7 10 12 12 9 11 20 11 10 12 12 20 16 7 6 11 13 13 12 3 6 6 4 8 11 10 11 10 11 14 15 14 11 10 9 9 12 10 11 13 13 12 11 11 10 8 9 11 11 10 8 9 9 10 9 9 10 10 9 9 9 8 8 8 7 7 8 8 9 10 8 8 8 7 7 7 6 6 7 6 6 6 6 6 5 6 5 6 6 6 6 5 6 5 5
6 5 11 12 12 10 13 16 18 8 9 3 7 15 11 4 5 18 24 4 4 5 11 10 7 8 10 11 12 11 11 13 11 9 15 14 12 10 10 10 12 12 11 13 12 11 10 9 11 11 11 11 10 9 9 9 9 10 10 9 9 10 9 8 8 8 8 8 8 9 9 9 9 8 8 8 8 7 7 7 7 7 7 6 6 6 6 6 6 6 5 5 5 5 5 5 4
3 4 14 17 5 12 8 11 4 5 5 2 3 13 11 8 11 25 20 12 9 6 8 10 10 10 10 12 12 11 12 13 10 10 14 13 12 10 12 11 11 11 10 13 14 11 11 11 10 11 12 11 12 12 11 10 10 9 9 9 9 9 9 8 9 9 9 9 9 10 9 9 9 9 9 9 8 8 8 8 8 8 7 6 6 7 7 5 5 5 5 3 4 3 4 4 3
4 1 2 18 8 8 10 1 1 3 5 2 4 10 9 12 19 16 9 4 5 6 8 9 9 12 11 11 12 13 10 9 11 12 12 12 11 11 12 13 10 11 10 9 10 11 11 7 8 8 9 11 12 11 10 9 9 9 9 9 8 8 8 9 9 9 9 8 9 10 10 10 10 9 9 9 8 8 8 8 9 8 7 6 6 6 7 6 6 6 6 5 5 5 6 5 5
4 4 2 6 9 7 4 0 1 6 2 2 1 3 21 7 10 12 11 5 2 6 8 13 16 14 12 12 11 12 14 9 12 12 11 12 11 10 12 13 10 10 8 8 11 14 12 11 8 7 9 11 12 12 12 11 9 9 9 9 9 9 9 9 8 8 8 8 9 9 10 10 10 10 9 9 9 8 9 9 9 8 7 7 7 7 7 6 6 8 6 7 5 5 5 5 5
2 4 5 1 4 7 5 8 2 3 2 4 3 7 14 25 6 9 5 3 2 12 16 16 15 15 14 14 12 11 12 11 9 10 10 10 9 10 10 13 10 9 11 11 11 10 11 11 9 10 9 11 11 12 12 12 12 11 10 9 9 9 8 9 8 9 9 8 8 8 10 10 10 10 10 9 9 9 9 9 9 7 8 7 7 6 7 8 7 7 7 7 6 6 5 6 4
2 4 5 9 2 8 13 1 1 1 1 3 2 8 13 22 4 7 3 5 14 15 17 16 16 16 14 13 11 10 12 13 10 10 8 8 8 7 9 10 10 10 10 10 11 9 10 10 10 11 11 12 12 12 11 10 10 10 10 10 10 9 9 8 8 7 7 8 8 9 9 10 10 10 10 10 9 10 9 9 8 8 7 8 7 7 7 7 7 7 6 6 7 7 7 7 5
5 1 5 3 4 6 7 4 1 1 4 3 3 5 13 22 33 27 14 7 11 13 17 17 15 14 14 13 11 10 9 9 13 12 11 6 6 7 8 9 10 9 9 10 10 11 12 10 9 11 11 11 12 12 12 11 10 10 9 9 9 9 9 8 7 6 7 7 7 8 9 9 9 10 10 10 10 10 9 8 7 8 8 7 7 7 8 6 6 6 7 6 7 6 6 6 7
2 2 3 8 3 7 13 10 2 4 2 7 12 15 18 24 26 23 19 6 9 16 16 15 16 15 14 12 11 10 9 9 13 10 9 9 8 7 6 7 7 6 6 8 8 9 9 8 7 8 9 9 10 10 10 10 10 8 7 7 7 8 7 6 6 6 7 7 8 9 9 9 10 11 11 11 10 9 9 8 8 8 8 8 7 7 7 7 6 6 8 6 5 7 6 5 5
1 2 4 4 8 7 10 10 3 1 8 9 12 16 17 22 23 22 20 12 14 20 17 13 14 13 12 11 10 9 8 11 10 8 8 8 7 8 7 6 5 5 5 5 7 7 8 7 5 6 8 9 8 7 7 7 6 7 8 5 5 6 6 7 7 9 8 9 10 10 10 10 11 11 12 11 11 9 8 8 8 7 8 8 8 9 8 8 9 8 9 7 6 5 4 3 3
1 2 4 8 7 12 15 15 4 0 7 9 16 15 15 19 23 23 22 18 18 19 15 14 13 12 11 10 10 9 8 11 6 7 9 8 8 6 6 5 5 4 3 4 5 6 8 9 7 10 9 7 7 8 7 8 8 6 4 7 9 8 10 10 10 9 9 10 11 11 11 10 11 11 11 10 10 10 9 7 7 7 8 9 9 10 8 8 8 8 7 5 7 6 6 3 3
7 8 7 11 3 15 13 11 6 4 5 4 5 15 18 20 25 23 19 17 22 19 14 13 14 10 9 9 11 10 9 6 7 9 8 5 6 7 6 5 4 3 3 2 5 8 7 7 9 10 6 7 9 10 10 10 10 10 11 11 10 9 8 8 8 8 10 9 11 10 9 7 7 8 8 9 9 10 9 8 9 9 9 9 9 7 7 8 8 8 6 6 5 8 6 6 6
8 9 6 6 11 12 15 12 2 0 2 9 3 15 19 22 26 25 18 16 16 13 11 13 9 10 10 8 8 9 8 10 7 8 8 5 6 8 6 5 4 2 4 4 4 4 5 6 8 8 7 8 9 10 9 9 9 9 9 8 11 8 8 10 10 11 10 10 9 9 8 8 9 9 10 11 11 11 11 10 10 9 10 9 8 8 8 9 9 11 10 9 6 4 4 4 8
8 5 3 12 5 2 9 2 2 2 2 12 14 17 17 17 22 18 13 6 6 6 6 9 9 10 11 10 6 7 8 9 9 8 9 9 6 6 6 6 6 6 4 4 3 4 4 5 6 7 8 8 9 9 10 11 10 10 8 5 5 5 5 5 3 1 4 4 6 8 9 10 11 11 12 12 11 11 12 12 10 9 10 10 10 9 9 10 9 9 9 9 8 6 6 6 7
6 8 7 10 11 10 8 6 8 9 6 2 9 14 12 7 10 7 6 3 4 7 5 6 7 8 7 7 7 6 9 7 8 8 8 7 8 7 6 7 6 5 4 4 4 3 3 5 5 6 8 9 9 10 12 9 6 4 4 2 3 2 2 3 5 5 7 8 8 8 11 12 13 12 11 11 10 10 10 9 9 9 9 9 9 9 10 12 11 11 12 10 11 10 7 5 6
1 7 13 16 10 8 8 8 8 7 8 3 8 11 5 5 5 10 8 9 16 13 12 12 7 7 4 5 7 5 5 6 7 7 6 6 7 8 6 6 5 5 5 4 3 4 4 6 5 5 6 6 9 10 11 9 9 9 7 7 6 6 8 6 9 11 10 10 12 11 10 9 7 8 8 9 10 9 10 10 10 10 10 10 11 11 10 8 10 12 12 12 12 11 8 6 7
2 7 14 15 12 10 7 10 4 4 2 1 6 2 16 2 8 12 12 10 16 13 11 13 9 7 5 6 4 4 5 6 4 5 5 5 6 5 6 5 4 5 6 4 4 4 4 5 5 5 5 6 7 7 8 9 8 8 11 12 12 12 12 9 8 8 10 10 10 11 11 10 11 12 11 11 11 12 11 11 11 11 11 10 10 9 9 11 11 11 9 10 12 9 7 9 10
7 2 8 9 7 6 7 5 6 7 2 5 2 5 6 20 4 13 13 9 11 11 11 11 9 5 6 5 5 4 5 4 4 5 6 5 5 4 6 7 6 6 6 6 5 4 4 5 4 5 5 5 5 5 6 9 10 10 11 10 10 11 11 11 10 11 9 8 8 8 7 8 10 11 11 11 12 12 11 11 11 11 10 10 9 10 11 10 7 7 10 11 8 9 12 11 8
5 0 4 3 7 7 3 3 5 3 5 9 5 3 1 10 5 5 7 11 6 8 9 8 9 6 6 5 6 5 4 4 3 5 5 6 5 6 5 7 6 5 4 4 4 4 5 5 4 3 4 4 4 5 6 8 9 10 11 10 10 9 10 11 8 5 4 3 5 5 6 7 8 9 10 11 11 11 11 11 11 10 10 10 10 10 10 9 11 11 11 10 11 9 10 10 7
4 3 4 4 4 2 3 2 1 3 2 11 6 5 3 17 2 3 2 2 8 6 7 8 7 6 4 4 5 5 4 4 4 5 6 7 6 6 5 6 7 5 4 3 3 3 4 3 4 3 1 1 3 4 7 7 8 7 8 8 10 10 8 8 5 7 7 5 7 5 6 6 7 8 9 9 10 10 11 11 11 12 12 12 10 11 11 10 10 11 12 12 11 11 9 10 11
3 4 1 2 4 2 2 3 1 2 4 15 8 13 9 10 3 6 4 3 2 3 5 4 5 4 5 6 7 5 4 4 4 5 5 6 6 7 5 5 6 5 4 3 2 2 4 3 3 4 3 2 0 1 3 6 7 7 8 9 11 11 9 8 7 6 5 5 8 8 8 8 6 8 7 8 9 10 10 11 11 11 10 9 9 9 10 11 10 10 10 11 11 13 10 10 9
2 1 2 1 3 4 2 3 1 2 9 1 2 7 10 10 6 7 5 5 4 3 5 5 4 5 7 5 4 5 5 5 5 5 6 5 8 5 4 6 6 7 6 5 4 3 3 4 4 2 3 3 2 0 2 3 4 6 6 7 9 10 8 8 10 10 8 9 9 10 8 6 6 6 6 6 7 8 9 9 9 8 8 8 10 10 10 9 9 9 9 10 10 10 8 9 9
4 3 2 3 4 6 4 3 1 6 9 2 2 6 1 18 12 11 20 18 12 7 9 9 6 5 6 6 8 6 4 4 5 5 4 5 4 5 6 6 6 6 6 5 5 4 3 2 3 3 2 2 1 1 1 3 4 5 6 6 7 7 7 7 8 9 8 9 8 7 5 8 6 7 7 8 9 10 9 8 9 9 9 10 10 10 10 10 9 9 9 10 10 10 11 11 10
7 7 6 6 1 1 4 5 2 7 8 3 1 3 7 4 7 15 21 22 16 13 10 9 9 10 7 7 6 6 6 5 5 5 5 5 4 4 5 5 5 5 6 6 5 4 3 2 2 1 3 2 2 1 2 1 3 4 4 5 6 6 7 7 7 8 7 7 7 8 8 8 9 10 9 10 10 10 8 9 10 10 10 9 9 10 9 9 9 9 9 10 11 10 9 11 11
12 3 9 7 7 6 4 6 6 7 4 2 2 3 8 3 4 1 6 8 8 7 7 5 5 7 6 6 5 6 7 7 5 4 5 5 5 4 5 5 5 5 6 6 5 4 4 3 2 1 4 4 2 1 0 2 3 3 3 3 4 4 6 6 7 6 5 5 6 7 7 7 8 8 9 8 5 7 8 8 8 9 9 9 9 9 8 9 9 8 8 10 9 8 9 10 9
3 3 4 2 9 5 5 3 3 2 3 4 2 7 4 6 4 10 9 12 12 10 7 6 11 7 7 7 8 8 7 7 6 5 5 5 4 4 4 4 5 5 5 5 5 5 5 4 4 2 2 3 4 2 0 1 2 2 2 3 4 4 4 4 4 5 6 6 6 7 7 7 7 6 5 4 5 6 7 8 7 9 8 8 8 9 9 9 9 9 8 8 9 6 9 10 9
5 8 9 7 2 6 2 3 1 2 1 12 3 7 9 7 12 12 9 5 9 7 8 8 11 10 6 9 9 7 7 6 7 5 4 5 6 4 3 5 5 6 6 6 6 5 5 6 5 6 4 3 3 3 3 1 1 1 2 3 4 4 4 5 6 6 6 6 7 7 7 8 7 5 5 6 6 6 7 7 8 8 8 7 8 8 9 9 9 9 9 9 10 8 9 11 9
7 4 6 3 2 4 4 4 3 1 4 8 2 5 8 4 13 2 2 5 8 5 9 8 6 3 6 9 6 6 8 8 6 5 4 5 4 5 5 4 4 5 6 7 7 5 4 4 5 6 6 7 6 4 4 3 1 2 2 3 3 4 5 5 5 5 5 5 5 5 4 5 6 7 8 7 7 8 7 8 7 7 7 7 8 8 9 9 10 9 10 10 10 9 10 8 8
7 7 3 7 4 4 1 5 4 4 5 6 4 4 6 8 14 5 8 7 8 13 4 2 6 5 8 8 8 8 9 8 7 7 5 3 3 4 4 4 4 4 5 5 6 6 5 5 5 4 5 5 6 6 5 5 3 3 2 3 3 4 4 4 4 5 4 5 6 5 6 7 5 5 6 7 8 8 8 8 8 7 7 8 7 8 8 9 9 9 9 8 8 9 9 9 8
0 0 1 0 3 2 5 7 3 3 6 2 6 4 12 9 6 3 5 8 8 10 7 5 7 8 8 8 8 10 11 9 7 7 5 2 3 3 3 4 5 6 6 6 6 6 8 7 6 7 4 4 6 7 7 7 5 3 3 2 3 3 3 4 4 4 5 5 6 5 6 5 7 5 6 6 7 8 8 8 8 8 8 7 8 8 8 8 9 9 9 8 8 10 10 10 8
5 2 3 0 1 3 4 2 4 5 4 6 6 12 13 12 6 7 8 7 7 6 8 6 6 8 7 7 8 9 10 9 8 6 4 3 3 2 2 3 3 3 3 3 4 5 5 5 7 7 7 8 7 6 6 7 6 5 3 3 3 3 4 3 3 4 4 5 5 4 5 6 4 5 5 6 6 7 7 7 7 7 8 8 8 7 7 8 8 8 8 9 8 10 10 9 8
13 14 14 17 11 4 5 12 2 3 7 7 7 16 12 11 6 7 7 7 5 7 5 7 7 7 7 7 7 7 9 7 5 4 2 2 1 2 2 3 3 4 6 7 6 5 5 6 5 6 6 6 7 8 7 7 6 5 4 4 3 3 3 2 3 4 4 4 4 5 5 3 5 6 6 7 7 6 6 6 6 6 6 7 7 7 7 7 8 8 8 7 8 9 9 9 8
Wind_Direction
325 324 312 297 37 104 63 5 135 313 54 255 297 177 258 252 265 333 258 350 317 255 197 0 33 16 325 248 249 238 223 277 197 225 234 247 255 279 252 241 212 162 170 168 177 212 206 191 186 178 178 182 184 185 185 183 185 181 180 180 180 178 178 180 178 178 178 175 173 174 174 169 166 162 164 161 160 163 163 166 169 169 172 173 174 175 174 180 179 167 193 151 170 179 158 168 123
320 321 356 331 343 72 308 124 96 348 39 341 244 133 248 225 115 217 253 226 208 192 265 290 288 254 241 249 260 344 281 198 221 213 255 258 314 309 293 214 192 183 177 172 171 192 202 200 193 186 181 181 183 187 187 184 187 186 183 183 183 181 183 183 180 180 179 178 175 176 175 173 171 168 170 166 165 165 165 173 169 171 174 176 178 178 174 188 170 186 188 158 161 193 143 138 149
329 357 4 19 30 75 96 38 277 41 98 261 266 198 315 190 219 252 233 242 243 317 328 310 294 282 284 232 315 213 275 232 234 254 258 314 333 276 347 179 163 234 198 178 171 178 187 202 194 191 187 185 182 186 188 188 189 191 187 184 184 184 187 186 186 183 181 180 177 179 178 176 173 172 178 170 167 172 167 177 172 172 177 177 180 183 178 192 170 189 173 175 157 177 156 150 134
0 22 127 63 134 29 63 36 99 139 169 229 306 249 198 201 244 238 255 264 292 314 331 311 341 208 274 289 243 178 275 305 212 188 251 266 209 256 18 105 105 88 23 294 216 179 169 191 198 196 194 190 187 187 188 189 191 194 192 188 184 186 187 189 188 188 185 180 180 178 180 177 174 174 180 172 173 172 174 174 178 170 173 180 180 180 186 193 172 190 177 165 170 184 188 184 145
33 313 79 100 110 10 114 175 145 129 231 184 213 269 236 227 247 273 273 278 290 283 260 264 313 279 212 240 288 199 248 253 305 197 263 267 276 273 149 123 112 113 125 90 330 324 194 175 203 202 202 198 193 189 189 190 192 193 194 193 188 186 187 189 190 191 186 183 181 179 182 179 174 176 177 180 174 175 182 172 183 171 176 182 180 184 187 192 176 179 173 169 168 176 185 190 201
33 19 346 77 151 184 58 51 245 217 224 136 243 249 219 229 235 249 280 289 275 261 244 242 210 310 339 242 196 247 206 325 270 277 205 286 335 340 339 132 115 105 98 108 125 46 349 236 192 202 209 212 206 195 191 191 191 193 195 195 192 189 188 188 192 193 187 188 187 180 190 180 176 178 179 179 181 177 179 176 188 173 177 184 185 196 182 192 186 185 179 176 181 199 193 183 208
289 34 356 32 12 52 187 198 241 234 253 168 241 269 258 260 226 288 298 327 284 245 185 206 148 326 313 283 317 246 230 250 352 272 95 294 332 358 331 342 112 124 126 117 164 151 139 217 250 209 210 215 220 215 203 196 194 191 192 194 193 193 193 187 189 195 190 188 187 185 186 184 178 182 181 182 186 178 179 177 187 184 179 181 193 198 192 188 191 196 182 185 189 193 202 209 209
56 128 322 100 212 34 242 239 255 172 275 193 230 252 280 271 287 297 284 315 300 344 249 270 2 166 252 325 252 266 287 186 236 306 302 310 358 9 351 324 103 165 155 149 142 135 169 191 198 216 217 222 224 223 218 207 205 201 190 191 193 193 196 192 187 196 194 193 190 191 185 186 185 186 187 185 182 185 183 178 191 189 186 184 194 198 203 183 198 194 195 200 189 189 205 222 220
357 83 309 74 206 30 327 247 257 220 268 263 272 235 273 274 280 268 284 245 300 261 279 279 183 295 240 323 210 273 294 260 282 267 309 352 357 15 42 0 340 340 339 137 142 130 180 201 211 230 223 223 230 230 228 220 215 210 203 194 191 193 197 196 194 194 198 193 193 197 188 189 186 190 194 191 183 191 186 181 194 191 188 191 189 201 200 193 198 204 202 208 199 198 206 223 230
30 58 278 149 119 261 310 270 245 244 224 234 248 267 252 271 283 250 265 295 259 280 276 294 183 218 260 273 292 309 270 317 314 2 347 338 349 14 64 178 348 62 335 287 169 158 151 187 164 268 242 235 239 237 235 232 225 223 216 202 194 192 195 198 197 193 202 197 193 197 197 194 188 194 192 199 188 198 188 190 193 198 193 194 192 195 204 201 199 209 210 217 209 209 208 216 226
334 10 139 90 27 261 244 269 238 292 262 294 287 251 250 265 245 269 238 248 287 271 286 334 292 234 125 252 227 249 296 311 14 332 281 293 319 85 94 276 174 136 163 231 287 261 162 159 176 182 245 238 234 242 243 237 236 232 227 218 204 196 194 198 200 195 199 204 198 199 193 202 194 196 194 201 181 206 200 190 194 201 200 196 199 200 202 205 208 215 216 224 217 212 216 222 230
336 47 4 204 213 193 246 241 269 277 290 290 271 277 231 196 112 275 274 292 283 274 258 65 269 90 283 264 268 277 309 316 283 245 263 253 258 17 25 79 336 302 184 178 178 225 265 161 169 190 197 239 233 240 245 238 229 236 233 226 218 208 200 196 201 199 198 202 205 203 196 203 197 203 198 192 183 211 216 188 201 194 202 202 201 204 207 203 207 214 222 225 226 222 219 229 242
118 103 77 92 238 182 282 280 270 308 303 263 229 268 137 148 181 233 262 253 275 288 292 209 246 79 262 260 244 293 303 261 244 237 265 298 256 300 123 40 0 196 211 182 177 192 173 175 183 173 179 215 247 241 241 245 231 224 232 229 225 217 213 203 200 199 200 202 202 207 202 202 197 205 205 190 186 211 237 197 196 208 200 207 207 207 210 210 212 215 220 226 232 228 226 231 237
120 181 129 242 61 244 243 258 283 302 278 255 228 259 188 197 223 210 212 290 270 256 232 249 194 183 264 282 286 274 256 271 257 261 283 276 280 279 319 151 98 254 210 186 190 185 182 183 182 182 164 194 224 237 241 242 233 225 224 229 228 219 216 216 205 202 193 201 202 198 212 205 203 200 200 188 188 201 224 217 195 210 210 204 214 212 210 215 217 219 223 226 230 233 232 235 239
150 161 87 134 305 25 246 216 218 176 265 40 264 208 235 244 231 201 202 274 270 242 275 234 223 323 255 170 281 250 245 243 233 253 261 286 274 209 241 269 232 168 195 227 207 173 197 194 196 176 166 184 217 221 217 231 224 223 223 226 229 222 218 217 211 202 203 195 195 193 201 210 204 212 199 188 186 195 211 218 208 209 215 206 210 216 216 216 221 218 220 229 234 234 238 240 244
139 86 85 238 266 180 268 209 266 251 267 214 268 298 285 267 248 284 258 193 278 257 118 266 99 219 241 223 249 247 256 281 291 336 301 303 319 300 267 254 254 230 193 184 228 207 179 193 181 193 175 187 211 212 210 205 218 214 213 219 223 223 227 226 212 198 207 204 191 189 195 204 202 207 202 188 188 190 207 211 214 202 230 225 212 215 217 221 224 223 221 224 231 239 241 244 247
71 80 308 68 277 162 256 191 142 242 244 279 290 353 332 296 229 221 288 168 278 271 253 240 244 219 253 253 258 259 264 274 311 307 324 303 319 295 313 309 316 298 213 201 194 231 186 181 199 202 191 195 210 211 206 207 206 210 211 207 213 215 220 227 221 201 196 208 197 188 191 196 199 194 200 181 190 188 195 204 215 213 221 255 257 219 218 221 224 231 227 226 230 235 242 249 251
73 180 140 256 204 191 216 202 196 204 289 267 305 196 339 304 310 290 326 257 238 271 266 264 253 246 247 257 263 263 278 284 281 281 270 267 281 284 286 274 286 264 276 253 199 184 205 208 193 204 211 203 205 214 208 201 209 207 206 205 201 208 211 216 214 208 198 197 201 194 191 189 191 194 197 178 187 190 192 195 204 214 215 241 241 262 239 223 225 228 234 232 234 235 222 224 275
160 116 134 246 187 233 161 213 245 295 272 281 280 284 264 270 308 309 326 298 298 297 281 260 262 263 251 257 258 265 265 268 263 241 246 248 254 250 247 253 257 269 280 266 241 187 191 189 187 198 210 204 210 211 213 201 205 203 204 202 199 196 201 203 202 202 199 195 193 194 191 192 186 190 198 194 183 191 194 193 195 201 210 220 245 246 234 283 267 240 232 234 235 233 193 142 169
232 138 233 241 217 249 214 209 252 209 285 297 300 293 282 273 294 346 269 290 296 282 284 301 284 268 271 251 243 255 255 257 253 242 241 243 243 241 241 242 247 245 243 245 241 193 186 187 199 210 216 212 205 219 223 214 203 204 200 199 197 191 191 194 193 190 192 192 192 189 192 190 185 187 201 197 190 190 197 204 197 196 204 209 218 238 250 236 232 15 1 307 235 101 109 118 137
272 152 221 241 245 268 249 216 246 261 273 280 284 298 293 279 238 208 277 308 284 274 264 241 267 278 284 286 269 228 251 249 248 238 240 243 243 237 227 223 223 226 226 236 247 202 200 201 196 208 208 212 217 220 221 223 211 209 204 200 194 187 187 190 189 187 187 189 187 185 186 189 187 186 189 194 193 190 190 196 210 209 199 206 208 218 235 245 247 270 341 23 61 116 110 121 79
107 218 243 253 273 274 262 238 248 252 260 285 284 303 282 319 230 234 224 244 271 269 276 239 226 264 277 290 297 284 250 251 252 242 234 234 237 237 232 244 255 255 266 255 230 222 207 205 199 200 191 200 208 210 212 221 215 216 209 201 192 190 188 192 188 187 185 186 184 181 178 190 194 187 189 193 193 186 194 196 201 200 203 207 209 212 217 221 239 225 205 210 98 95 131 132 148
254 248 257 242 245 260 295 282 269 243 288 274 284 267 314 288 284 266 257 245 253 260 261 275 275 262 267 279 278 282 282 271 258 248 241 239 242 241 234 226 224 233 232 234 233 222 214 209 206 196 192 195 204 204 203 200 208 219 217 201 196 200 192 192 194 188 188 180 181 179 181 189 191 191 193 196 197 182 203 196 197 196 200 205 203 202 211 214 216 218 212 218 167 133 145 129 140
226 258 297 283 276 263 281 281 284 277 265 268 260 310 280 285 290 280 254 258 244 260 268 271 272 275 273 267 267 262 261 268 269 256 240 236 234 236 229 224 226 229 231 236 236 230 200 207 205 194 203 195 201 195 195 197 204 207 209 203 207 204 193 199 199 196 182 182 182 183 184 185 185 189 196 197 202 184 202 195 195 196 201 204 195 195 200 210 216 213 213 217 195 194 182 196 165
235 264 228 274 308 265 289 282 277 267 258 264 270 265 259 259 262 331 275 270 271 254 266 272 265 269 272 263 262 262 262 262 262 263 262 236 234 237 240 228 227 223 228 234 234 231 219 205 198 199 202 203 202 188 194 200 198 200 199 203 211 201 202 205 200 184 189 188 186 182 180 188 187 188 192 197 187 204 190 194 198 204 196 199 186 205 196 201 208 207 210 213 209 213 210 221 211
221 244 307 276 272 285 282 292 280 272 276 249 272 256 262 259 292 268 257 269 264 278 250 245 260 268 262 259 258 256 258 258 258 265 258 259 233 236 239 225 224 221 223 228 226 227 225 203 197 200 200 201 201 185 198 197 198 197 200 204 210 198 209 202 188 192 193 187 194 191 183 188 192 191 193 187 191 203 192 195 200 200 201 193 189 203 198 194 201 202 207 211 208 216 219 226 211
170 290 284 283 280 284 276 263 281 283 275 276 260 270 267 263 126 281 265 234 266 263 252 259 244 251 257 260 262 260 257 259 256 259 274 261 255 222 238 226 218 223 222 227 226 225 221 197 203 202 201 202 195 191 197 201 197 202 202 203 200 202 202 193 192 195 191 194 197 192 191 189 188 191 190 187 194 196 196 198 204 195 205 196 193 205 188 197 194 199 199 203 208 210 223 213 209
316 296 298 280 281 259 266 269 269 302 294 226 225 262 252 217 161 244 262 275 70 349 295 288 271 264 267 268 268 266 260 262 262 258 257 261 253 237 237 224 223 224 218 224 224 223 219 210 204 202 201 198 192 197 199 202 200 205 207 200 202 203 194 193 194 194 195 196 193 193 194 193 189 189 190 190 192 194 198 201 203 200 207 193 195 197 195 195 196 202 203 205 209 208 220 215 215
274 352 312 296 290 293 258 252 281 146 261 256 248 287 262 157 216 239 249 284 304 291 283 284 287 281 276 273 272 268 259 263 256 249 250 249 252 244 241 227 218 219 221 221 223 219 219 216 207 208 203 197 191 194 196 200 201 204 206 206 206 199 194 193 196 195 196 196 191 194 196 193 193 193 190 191 191 195 200 202 206 209 203 193 191 197 194 191 197 197 210 196 206 200 213 227 213
329 224 232 306 320 293 290 49 73 144 249 332 332 322 297 181 222 247 266 292 310 311 291 288 284 284 281 280 279 278 270 259 258 246 251 250 245 243 239 241 213 214 217 219 223 223 220 217 204 206 204 199 197 198 197 196 199 202 202 207 209 198 195 195 199 197 196 194 193 195 194 195 197 197 190 190 187 194 200 206 207 208 200 193 186 185 194 190 200 199 204 192 209 204 216 218 213
280 276 115 252 335 286 281 99 227 339 258 10 70 261 293 260 225 252 262 259 265 281 287 294 294 293 288 285 281 281 279 256 259 262 252 249 248 241 236 244 227 214 217 214 210 218 216 213 199 204 199 205 197 196 195 199 198 201 199 203 203 199 199 198 198 195 193 194 193 196 196 197 198 197 195 190 192 194 201 208 208 207 190 188 187 190 190 193 197 206 192 205 207 216 217 219 212
306 351 282 321 201 275 297 295 253 242 317 32 69 280 257 288 262 230 221 142 204 299 296 292 289 287 289 287 284 280 278 280 267 266 261 260 252 248 237 243 232 215 214 218 217 216 218 215 200 203 195 199 202 200 198 199 198 199 201 203 203 199 198 201 199 196 194 191 190 196 198 198 197 197 195 194 196 198 204 208 209 192 188 184 193 184 188 199 201 206 201 195 202 218 209 229 206
338 177 290 288 223 276 331 0 357 346 299 338 174 264 316 294 301 145 126 310 306 293 286 286 283 285 286 285 285 286 293 297 297 281 274 266 263 249 246 243 236 222 216 217 217 217 221 217 203 202 198 196 199 202 203 203 201 199 199 200 202 197 200 203 203 198 193 191 191 197 197 198 198 198 197 196 201 202 206 210 201 191 179 186 186 188 197 202 196 203 200 199 202 210 206 222 217
273 6 234 226 277 316 292 284 34 69 78 303 301 266 257 270 287 287 281 269 279 274 277 280 281 282 282 286 285 284 285 290 290 294 296 286 274 266 255 244 239 228 221 218 217 215 219 218 205 204 206 198 196 197 198 199 203 202 202 200 197 198 201 202 199 184 195 193 192 201 195 196 199 199 198 198 206 208 206 207 195 183 176 180 186 189 204 192 200 196 206 193 201 207 209 210 224
214 184 255 290 261 210 256 292 257 5 307 297 290 275 269 271 278 286 293 290 267 270 270 276 282 285 286 284 285 283 280 280 277 283 287 297 300 287 274 262 252 232 223 218 217 218 223 223 205 211 207 200 200 199 200 199 201 207 208 201 197 198 197 199 182 184 192 192 198 200 196 195 197 199 199 199 205 205 205 202 194 181 173 179 182 191 197 192 193 194 205 197 204 216 213 210 218
241 185 226 253 284 285 270 255 298 328 303 286 276 270 280 284 285 288 293 295 284 280 280 277 275 277 280 279 278 279 275 275 273 281 289 296 292 295 295 285 266 244 229 222 219 217 223 226 205 211 210 203 197 194 187 195 194 197 201 205 205 198 195 194 196 197 195 199 202 199 197 198 196 197 198 198 202 202 202 201 194 171 175 176 185 194 198 191 191 192 206 195 197 223 239 212 160
8 286 258 255 266 277 272 279 252 345 304 242 258 269 275 276 278 287 291 299 284 274 277 280 274 276 277 275 273 272 272 267 288 294 290 289 295 300 303 299 286 289 253 222 219 222 217 215 194 214 207 191 185 186 183 182 187 195 214 211 210 199 200 200 201 202 202 203 204 203 200 200 198 195 195 192 200 201 202 192 182 181 179 184 192 203 189 187 193 194 196 185 190 203 227 186 178
270 271 272 277 243 271 266 294 321 295 192 290 271 285 280 281 285 283 287 286 279 283 283 267 268 269 266 270 276 276 276 296 309 308 303 302 316 323 327 332 345 316 295 242 224 223 217 214 207 218 192 187 194 194 192 190 189 191 188 198 194 200 200 201 211 209 211 209 208 206 202 200 199 196 192 193 198 197 196 193 191 189 182 191 198 183 177 184 181 188 174 194 202 197 216 174 181
246 238 268 292 264 265 283 269 10 140 311 264 256 288 288 289 286 286 278 270 273 282 260 263 266 270 272 266 270 283 298 295 307 288 298 306 317 321 328 324 329 313 286 279 261 259 237 219 217 216 195 188 201 199 191 198 202 202 194 195 192 205 214 207 203 206 203 205 204 199 194 191 191 193 191 193 196 197 198 194 197 190 187 183 182 184 180 186 189 189 183 191 184 213 211 179 177
238 239 237 243 261 343 305 250 349 331 6 297 309 297 287 280 275 279 279 252 259 261 256 249 237 250 251 259 265 284 287 290 297 303 302 306 311 305 319 323 322 321 309 312 301 270 258 236 224 215 206 194 196 200 200 207 203 202 204 199 211 193 194 202 202 159 182 199 216 200 201 198 196 198 195 194 198 197 196 198 192 187 187 186 185 185 188 197 188 187 188 196 172 189 204 204 190
212 221 238 263 250 240 226 282 334 308 285 270 309 291 284 259 287 317 304 263 259 266 272 271 269 247 265 288 291 243 256 271 287 302 306 315 322 315 304 294 307 302 303 295 290 270 253 255 241 224 214 202 199 196 199 200 190 173 168 86 90 83 44 132 164 194 189 199 208 204 208 201 202 202 198 197 196 198 197 197 189 186 183 183 185 193 197 201 191 192 190 189 188 199 196 181 206
150 214 215 236 252 263 254 285 357 339 319 357 8 331 290 273 244 266 286 323 306 305 318 293 273 279 280 265 257 280 265 245 245 268 280 291 290 301 307 303 303 302 291 274 272 274 264 267 259 248 236 221 209 201 197 184 182 180 165 171 170 181 205 182 193 200 199 199 207 209 211 205 199 199 195 193 197 196 195 194 189 181 185 187 193 200 200 188 192 194 192 189 197 207 184 165 203
342 259 199 229 237 246 269 286 5 286 222 270 48 72 287 132 296 288 286 279 276 294 288 283 286 277 277 253 257 257 263 289 276 258 277 302 303 315 311 305 296 302 286 300 303 286 276 267 263 251 236 229 223 212 193 180 180 183 187 192 196 195 200 213 209 211 207 212 206 203 203 196 197 194 196 193 195 197 196 193 192 191 193 193 195 196 197 200 198 194 185 192 202 187 162 196 202
253 247 180 207 223 227 243 241 209 258 272 280 184 179 269 295 206 250 279 284 283 289 282 283 276 266 265 261 257 251 254 247 268 296 297 281 277 273 287 296 298 274 282 299 291 303 306 297 280 255 237 229 226 218 194 192 187 189 192 200 201 203 203 213 209 214 211 208 206 207 192 198 197 198 198 198 197 196 195 195 194 195 194 195 188 198 204 201 188 190 191 198 191 185 193 202 195
222 173 150 170 194 206 213 183 235 240 2 302 177 121 320 262 271 283 255 293 286 274 282 285 287 285 268 271 272 265 258 264 261 282 287 291 294 296 285 293 290 285 275 276 297 303 304 306 295 260 247 241 229 197 194 201 201 193 195 197 205 213 208 215 206 207 211 209 206 206 197 198 200 203 202 199 199 196 193 194 193 195 195 195 193 200 204 193 192 187 185 189 194 195 198 207 183
258 133 85 93 90 76 161 151 135 312 36 265 168 187 185 278 263 257 312 236 285 272 288 290 275 271 268 274 280 281 293 291 269 243 268 284 281 279 276 280 294 292 297 287 290 303 302 320 331 342 313 258 257 224 191 199 204 193 196 200 206 212 212 227 201 191 192 179 204 206 204 201 200 202 205 202 198 196 194 195 195 196 199 199 193 200 199 195 196 195 190 191 193 196 201 199 202
117 120 141 358 40 44 21 74 76 332 238 263 182 202 171 282 262 218 176 217 203 282 303 294 313 312 277 250 245 268 284 293 293 299 283 274 279 275 294 298 296 315 320 313 316 327 320 328 330 341 332 339 40 219 227 204 196 194 203 204 205 211 208 206 210 222 192 177 196 205 199 206 199 204 199 205 201 197 199 197 199 202 202 199 196 198 201 198 197 193 192 192 194 197 196 198 207
123 93 140 32 285 21 32 335 43 189 270 270 232 191 179 207 285 280 241 287 259 217 257 277 302 294 287 291 280 260 254 265 290 296 300 316 328 324 332 334 334 320 329 349 340 332 343 329 331 357 351 4 355 90 165 227 207 208 210 207 212 220 207 201 203 210 202 202 202 203 198 187 196 201 201 204 208 203 200 202 203 200 199 196 201 202 202 196 194 191 188 191 198 200 196 194 202
115 120 66 118 262 36 334 27 241 205 231 281 55 140 51 238 250 307 299 279 270 222 226 245 254 271 277 275 270 263 263 281 283 279 292 305 301 303 322 320 330 335 330 321 322 314 302 313 327 345 336 358 0 348 187 195 188 213 215 215 220 217 217 214 212 214 204 204 208 213 185 195 187 191 200 202 209 202 197 197 195 198 201 202 202 200 200 196 190 188 189 190 193 192 196 193 196
156 172 167 99 195 149 266 266 281 311 291 259 163 353 271 293 284 235 243 262 264 270 260 252 244 242 241 249 266 290 293 278 269 275 281 274 275 288 293 296 304 310 318 320 322 330 315 294 308 334 305 315 325 110 141 190 244 230 209 215 220 211 218 211 220 220 216 202 192 200 195 196 196 200 196 204 204 198 197 202 199 203 206 203 202 201 198 193 187 188 188 191 194 198 192 196 204
192 110 160 180 145 162 213 204 208 217 227 303 269 112 236 114 245 250 232 263 285 270 260 268 263 253 258 259 266 277 283 275 256 272 271 274 282 280 296 308 309 309 315 321 323 335 333 331 343 331 323 324 4 356 151 177 211 237 256 235 218 216 224 215 218 214 213 205 204 200 202 199 201 205 203 208 191 185 200 203 202 203 205 203 197 197 193 187 188 187 191 194 196 189 193 194 204
188 168 63 90 225 126 200 207 179 278 335 338 225 208 207 204 270 296 263 260 260 263 280 275 267 251 242 263 254 248 253 262 271 274 287 281 267 293 309 317 315 321 323 324 333 339 346 338 328 307 280 292 310 319 270 209 221 222 211 223 236 225 225 227 231 214 207 194 201 200 207 202 206 203 204 179 191 188 199 205 204 208 205 202 196 194 189 186 184 187 188 188 194 185 188 195 202
200 117 204 205 135 157 288 352 108 68 17 250 153 294 271 296 281 262 282 307 287 288 257 250 247 236 233 237 235 244 252 263 270 255 258 293 314 324 341 329 327 337 343 345 336 336 333 336 343 338 336 325 317 304 288 221 209 183 244 221 210 209 217 217 217 220 212 200 194 199 201 205 196 188 192 189 184 192 197 202 205 209 206 201 196 192 187 186 183 187 189 188 193 183 188 197 196
108 185 229 77 122 107 140 215 329 54 209 272 94 227 293 345 288 327 327 351 294 275 251 252 265 305 260 245 237 243 250 249 261 276 262 263 284 303 328 335 340 337 336 339 342 343 344 356 359 346 343 342 333 325 306 288 247 215 215 230 239 226 211 213 218 224 221 204 205 200 202 196 199 196 190 189 185 190 194 196 201 205 203 198 196 191 189 187 183 190 192 192 192 180 191 198 196
149 185 222 130 239 247 289 92 261 254 250 263 285 223 252 224 255 263 288 309 296 284 320 323 274 265 249 250 235 234 245 258 268 265 277 311 354 333 334 343 340 346 347 342 335 342 354 11 10 16 356 344 326 321 310 298 269 236 220 217 208 223 236 234 222 215 206 212 213 203 196 206 204 199 189 183 186 188 190 193 194 198 194 197 196 193 189 190 186 191 191 192 186 180 191 197 196
90 51 315 192 94 189 140 196 202 137 272 325 276 264 268 214 223 179 206 218 240 272 291 261 242 238 236 237 232 223 231 234 240 254 259 321 318 319 337 4 354 346 345 345 345 350 5 359 2 3 357 3 357 354 343 326 306 278 262 255 257 222 214 216 230 210 202 211 221 208 207 201 209 196 201 192 189 190 189 189 191 192 193 194 195 194 190 189 187 194 189 191 185 183 192 197 195
211 169 248 260 194 230 122 309 156 195 192 215 272 277 257 249 179 177 204 215 232 222 254 274 256 246 244 245 239 230 228 226 229 241 283 309 307 309 343 9 359 330 327 342 3 1 353 355 1 1 1 355 359 349 343 332 323 310 287 258 255 246 247 226 222 222 225 222 217 217 213 213 184 201 195 192 191 192 190 190 188 190 190 191 192 192 190 187 188 194 193 191 182 186 193 199 189
183 184 203 197 167 188 222 251 124 174 201 229 207 251 277 264 151 201 193 231 215 233 210 256 272 273 248 245 242 230 233 229 230 250 267 275 292 314 326 8 14 6 358 356 351 352 4 9 358 350 356 6 353 351 347 332 328 320 317 304 289 283 266 247 217 216 223 232 234 218 213 189 197 211 186 193 192 188 184 181 182 188 190 191 193 192 187 186 190 193 193 188 186 187 196 197 187